Hourly Data Report for September 04, 2017

All times are specified in Local Standard Time (LST). Add 1 hour to adjust for Daylight Saving Time where and when it is observed.

KOUCHIBOUGUAC CS
NEW BRUNSWICK

46°47'00.000" N
65°01'00.000" W
21.00 m
8102328
71670
AKC

Download Data

Hourly Data (September 2017)
Hourly Data Report for September 4, 2017
Temp Definition
°C
Dew Point Temp Definition
°C
Rel Hum Definition
%
Wind Dir Definition
10's deg

Wind Spd Definition
km/h
Visibility Definition
km
Stn Press Definition
kPa
Hmdx Definition


Wind Chill Definition


Weather Definition


TIME
00:00 13.1 11.1 88 13 4   100.97     LegendNANA
01:00 12.5 11.9 96 11 5   100.78     LegendNANA
02:00 12.9 12.4 97 12 8   100.54     LegendNANA
03:00 13.8 13.3 97 13 10   100.32     LegendNANA
04:00 14.4 13.7 96 13 12   100.06     LegendNANA
05:00 14.7 14.0 95 15 14   99.91     LegendNANA
06:00 14.7 14.2 96 16 12   99.81     LegendNANA
07:00 15.3 14.8 97 16 8   99.73     LegendNANA
08:00 15.6 14.0 90 18 15   99.71     LegendNANA
09:00 14.1 13.2 94 19 11   99.72     LegendNANA
10:00 15.1 13.4 90 22 10   99.73     LegendNANA
11:00 15.6 13.8 89 24 11   99.77     LegendNANA
12:00 17.4 14.1 81 26 12   99.82     LegendNANA
13:00 18.2 13.0 72 25 13   99.94     LegendNANA
14:00 18.0 12.0 68 26 16   100.04     LegendNANA
15:00 19.5 11.4 59 27 17   100.08     LegendNANA
16:00 19.3 11.4 60 27 15   100.15     LegendNANA
17:00 17.8 11.4 66 26 11   100.22     LegendNANA
18:00 17.6 11.4 67 24 9   100.29     LegendNANA
19:00 15.7 11.5 76 20 5   100.38     LegendNANA
20:00 12.7 11.2 91 18 3   100.43     LegendNANA
21:00 15.2 12.0 81 20 7   100.43     LegendNANA
22:00 15.8 11.9 78 20 10   100.46     LegendNANA
23:00 16.1 12.2 78 20 10   100.47     LegendNANA

Notes on Data Quality.

Legend

  • E = Estimated
  • M = Missing
  • NA = Not Available
  • ‡ = Partner data that is not subject to review by the National Climate Archives
Date modified: